SCP
0 0 -0 -0 -0 -0 -0 -0 -0 -0 -0 -0 -0 -0 -0 0 -0 -0 -0 -0 -0 -0 0 0 0 0 0 0 0 0 0 -0 -0 -0 0 -0 0 0 0 0 -0 -0 0 0 0
-0 -0 -0 -0 -0 -0 -0 -0 -0 -0 -0 -0 -0 -0 -0 -0 -0 -0 -0 -0 -0 -0 0 0 0 0 0 0 0 0 0 -0 -0 0 -0 -0 -0 0 0 0 0 0 0 -0 0
-0 -0 -0 -0 -0 -0 -0 -0 -0 -0 -0 -0 -0 -0 -0 -0 -0 -0 -0 -0 -0 -0 0 -0 0 0 0 0 0 0 -0 -0 0 0 0 0 -0 0 -0 0 -0 -0 -0 0 -0
-0 -0 -0 -0 -0 -0 -0 -0 -0 -0 -0 -0 -0 -0 -0 -0 0 -0 -0 -0 -0 0 -0 -0 0 0 0 0 0 0 0 0 0 0 0 -0 -0 0 -0 0 -0 -0 -0 0 -0
-0 -0 -0 -0 -0 -0 -0 -0 -0 -0 -0 -0 -0 -0 0 0 -0 0 -0 -0 0 0 -0 0 0 0 0 0 0 0 0 0 0 0 0 0 0 0 0 0 0 0 0 0 0
-0 -0 -0 -0 -0 -0 -0 -0 -0 -0 -0 -0 -0 0 0 0 0 0 0 0 -0 0 -0 0 0 -0 -0 -0 0 0 0 0 0 0 0 0 0 0 0 0 0 0 0 0 0
-0 -0 -0 -0 -0 -0 -0 -0 -0 -0 -0 -0 -0 -0 0 -0 0 0 0 0 0 0 0 0 0 0 0 0 -0 0 0 0 0 0 0 0 0 0 0 0 0 0 0 0 0
-0 -0 -0 -0 -0 -0 -0 -0 -0 0 -0 -0 -0 -0 -0 0 0 0 0 -0 0 0 0 0 0 -0 -0 -0 0 0 -0 0 0 0 0 0 0 0 0 0 0 0 0 0 0
-0 -0 -0 -0 -0 -0 -0 -0 -0 -0 -0 0 -0 -0 -0 0 0 0 0 0 0 0 0 0 -0 0 0 -0 0 -0 0 0 0 -0 0 0 0 0 0 -0 0 0 0 0 0
-0 -0 -0 -0 -0 -0 -0 -0 0 -0 -0 -0 -0 -0 -0 -0 -0 -0 -0 0 -0 -0 0 0 0 0 -0 0 0 0 0 0 0 -0 0 0 -0 -0 -0 -0 0 -0 0 0 0
-0 -0 -0 -0 -0 -0 0 0 0 0 0 0 -0 -0 0 0 0 0 -0 -0 -0 -0 0 0 0 -0 0 0 0 0 0 0 -0 -0 -0 0 0 -0 0 0 0 0 0 0 0
-0 -0 -0 -0 -0 0 0 0 0 0 0 0 -0 -0 -0 -0 0 -0 0 0 -0 0 0 0 0 -0 0 0 0 -0 -0 -0 -0 0 0 0 0 0 -0 0 0 0 0 0 0
-0 -0 -0 -0 -0 0 0 0 0 0 0 -0 0 -0 -0 -0 -0 -0 -0 -0 0 0 0 0 -0 0 0 -0 0 0 0 0 0 0 0 0 0 0 0 0 0 0 -0 0 -0
-0 -0 -0 -0 0 0 0 0 -0 0 0 0 0 0 0 0 0 -0 -0 -0 -0 0 0 0 -0 -0 0 0 0 0 0 0 0 -0 -0 -0 -0 -0 -0 0 -0 0 0 -0 -0
-0 -0 -0 0 0 0 0 0 0 -0 0 -0 -0 0 -0 -0 0 -0 -0 0 -0 -0 -0 0 0 0 0 0 0 -0 -0 0 -0 0 0 0 -0 0 0 -0 -0 -0 -0 -0 -1
-0 -0 0 0 0 0 0 0 0 0 0 -0 0 -0 -0 0 0 -0 -0 0 0 -0 -0 0 0 0 0 0 0 0 0 0 0 0 -0 -0 -0 0 -0 0 0 0 0 0 0
-0 -0 0 0 0 0 0 0 0 0 0 0 -0 -0 -0 0 0 -0 -0 0 0 0 -0 -0 -0 0 0 0 0 0 0 0 0 0 0 -0 -0 0 0 -0 -0 -0 0 0 0
-0 -0 0 0 0 0 0 0 0 0 0 -0 0 0 0 0 -0 0 0 0 0 -0 0 -0 -0 0 0 0 -0 0 0 0 0 0 0 0 -0 0 -0 -0 -0 -0 -0 -0 0
-0 0 0 0 0 0 0 0 0 0 0 0 0 0 0 0 0 0 0 0 0 0 0 0 -0 0 0 0 0 -0 0 0 0 0 0 0 -0 -0 0 0 0 -0 -0 -1 -0
0 0 0 -0 0 0 0 0 0 0 0 0 0 0 0 0 0 0 0 0 0 0 0 0 0 -0 -0 -0 0 0 0 0 0 0 -0 0 0 -0 -0 -0 0 0 -0 -0 -0
0 0 0 0 0 0 0 0 0 0 0 0 0 0 0 0 0 0 0 0 0 0 0 0 0 -0 -0 0 0 0 0 0 0 0 0 0 0 0 -0 -0 -0 0 -0 -0 -0
0 0 0 0 0 0 0 0 0 0 0 0 0 0 0 0 0 0 0 0 0 0 0 0 0 -0 0 0 0 0 0 0 0 0 0 0 0 0 0 -0 0 0 0 0 -0
0 0 0 0 0 0 0 0 0 0 0 0 0 0 0 0 0 0 0 0 0 0 0 0 0 0 0 0 0 0 0 0 0 0 0 0 0 0 0 0 0 0 0 0 0
0 0 0 0 0 0 0 0 0 0 0 0 0 0 0 0 0 0 0 0 0 0 0 0 0 0 0 0 0 0 0 0 0 0 0 0 0 0 0 0 0 0 0 0 0
0 0 0 0 0 0 0 0 0 0 0 0 0 0 0 0 0 0 0 0 0 0 0 0 0 0 0 0 0 0 0 0 0 0 0 0 0 0 0 0 0 0 0 0 0
0 0 0 0 0 0 0 0 0 0 0 0 0 0 0 0 0 0 0 0 0 0 0 0 0 0 0 0 0 0 0 0 0 0 0 0 0 0 0 1 1 1 1 0 0
0 0 0 0 0 0 0 0 0 0 0 0 0 0 0 0 0 0 0 0 0 0 0 0 0 0 0 0 0 0 0 0 0 0 0 0 0 0 0 0 0 1 1 1 0
Wind_Speed_500mb
19 21 23 25 25 26 26 27 29 28 29 29 30 30 28 34 34 41 42 25 9 4 14 14 5 8 13 9 13 8 3 9 7 4 4 0 12 28 32 42 74 29 31 61 65
20 23 25 26 27 27 27 28 29 28 28 29 28 26 28 32 37 33 12 6 7 6 9 8 4 10 8 6 8 9 7 9 17 11 16 7 35 35 21 39 16 38 52 68 71
23 25 26 28 29 28 29 29 29 28 27 27 25 22 25 27 28 11 8 7 5 6 5 9 7 10 7 10 9 4 10 10 32 51 47 28 55 37 52 29 67 73 84 71 74
26 27 28 28 30 30 30 28 27 23 23 22 20 17 22 17 2 11 11 7 8 5 10 11 5 5 5 7 16 2 27 38 45 64 35 17 31 34 54 19 65 70 89 85 84
28 28 30 30 30 31 30 25 22 25 19 16 15 15 15 9 11 8 7 7 6 2 14 7 8 6 8 9 16 10 24 54 64 62 58 25 15 31 42 48 69 79 81 80 70
30 32 31 31 31 31 28 20 23 22 16 14 11 11 9 7 4 4 17 4 8 4 21 14 9 15 20 10 6 17 26 38 35 38 32 6 13 19 17 73 54 71 69 67 66
30 32 32 31 31 30 23 22 24 18 12 11 9 9 13 16 9 2 17 3 8 5 8 19 25 21 29 16 19 19 12 20 15 13 10 4 5 9 57 65 70 72 72 74 68
31 32 31 30 29 25 20 20 21 14 6 7 7 10 12 2 14 17 6 10 1 7 19 20 22 18 7 23 22 14 8 11 17 11 21 12 16 11 74 76 65 52 74 86 77
31 32 31 28 25 20 17 17 15 8 6 5 4 8 10 10 19 14 11 11 14 5 14 20 20 9 14 7 13 13 8 12 20 6 11 10 19 24 72 68 54 72 90 69 62
32 31 30 27 22 15 16 17 13 9 10 9 13 13 4 5 5 20 17 20 10 12 15 14 4 5 9 9 8 13 7 13 15 18 8 17 26 40 63 69 65 65 47 59 63
32 30 27 24 16 10 21 8 13 5 23 22 25 29 31 7 17 14 11 5 14 14 6 6 8 11 21 19 16 7 10 15 11 11 4 12 10 39 48 32 40 49 61 66 64
31 28 24 18 9 9 15 16 16 16 19 30 30 38 35 18 8 7 18 15 8 11 3 11 13 29 13 15 19 19 15 16 13 16 10 18 2 7 49 57 70 69 72 73 68
30 27 20 11 5 9 11 14 15 13 8 24 25 29 28 18 15 13 28 16 11 12 11 10 26 15 13 17 9 7 8 11 11 16 5 8 17 15 7 60 67 65 101 90 98
29 27 20 4 0 12 19 24 19 30 7 12 8 8 18 8 7 30 37 16 4 9 9 13 10 8 7 3 5 10 7 9 10 13 4 9 6 16 31 28 26 64 78 92 99
30 25 19 6 6 10 17 15 20 5 5 8 9 6 16 16 5 18 42 20 13 16 8 19 15 12 8 4 6 16 4 3 7 11 6 18 12 18 36 40 45 24 92 104 116
27 26 16 6 9 10 10 11 13 9 6 5 16 13 11 21 8 36 31 26 10 5 2 14 22 2 5 4 2 7 10 17 10 7 10 9 10 19 16 18 33 45 20 55 64
26 24 16 11 13 9 14 8 9 5 11 8 11 11 14 10 10 13 12 9 7 6 10 11 9 14 7 7 15 17 14 8 10 10 8 3 17 4 10 9 20 25 32 19 58
27 21 16 9 11 6 5 10 3 8 10 12 8 8 12 14 10 17 10 4 5 7 4 9 15 14 15 5 8 4 12 9 2 4 9 13 5 9 6 8 31 48 45 52 42
28 19 6 16 14 7 6 7 11 7 9 13 11 7 7 3 7 8 6 9 5 7 12 6 9 9 5 11 7 12 10 3 7 4 7 0 6 10 3 16 42 34 39 31 35
28 17 9 17 11 7 9 8 8 6 9 8 9 10 11 10 6 10 4 10 6 5 14 8 1 6 14 19 17 13 3 6 8 4 3 3 4 7 11 6 19 10 15 28 16
20 5 15 12 18 6 6 11 10 12 8 9 4 7 6 7 11 4 9 6 10 8 20 6 7 12 11 3 3 11 8 11 6 7 7 2 9 14 16 10 20 24 26 22 15
8 4 18 14 2 1 5 9 8 6 4 6 5 4 5 8 11 8 5 4 7 4 6 5 9 3 15 11 13 1 6 7 9 8 2 6 11 6 19 14 10 26 23 22 17
22 10 8 17 2 5 11 12 23 8 5 6 7 5 4 4 5 7 3 7 11 7 9 3 4 7 19 12 14 8 7 7 7 5 8 10 10 7 9 6 12 37 29 23 18
10 7 7 7 7 2 9 7 12 8 5 10 4 8 10 9 7 4 4 6 7 7 9 9 6 12 13 7 4 10 13 4 5 5 6 11 9 15 9 15 18 37 35 30 26
9 4 11 6 9 11 5 5 7 12 12 5 6 2 1 4 8 8 10 15 18 8 4 8 5 8 8 9 1 8 16 15 10 11 9 15 11 16 8 14 28 33 33 26 18
8 10 14 13 22 11 6 7 6 8 4 6 9 10 11 10 4 4 2 5 4 11 12 12 4 4 6 9 6 8 17 18 18 17 13 15 14 5 37 49 41 34 35 27 24
7 5 4 10 12 5 2 13 17 1 24 15 9 10 13 7 1 5 7 7 6 6 2 5 3 5 8 9 7 3 15 14 8 9 10 8 16 32 19 28 35 36 30 23 16
Wind_Direction_500mb
334 330 328 325 324 320 318 315 309 305 304 296 293 294 301 300 303 302 297 295 231 277 311 290 252 169 181 228 224 223 77 264 257 277 271 22 99 112 169 165 191 226 171 163 166
334 330 330 327 323 321 319 317 311 309 301 292 292 295 301 305 313 315 326 328 226 283 292 270 137 144 176 225 226 137 154 228 215 259 287 242 150 140 152 155 188 148 148 148 169
337 330 333 329 324 325 322 320 314 308 299 293 292 298 299 310 328 17 355 30 3 328 285 207 190 318 251 230 231 190 212 225 276 276 276 277 137 146 149 178 163 152 156 164 175
336 335 334 332 329 329 326 322 318 313 304 300 295 297 295 309 336 353 346 18 9 308 204 195 252 219 228 231 230 242 256 256 267 273 276 264 154 158 154 155 175 160 160 166 173
337 336 335 336 335 334 329 326 318 318 311 310 303 289 289 301 280 353 315 1 3 252 187 223 283 226 211 232 277 193 268 277 277 278 278 268 209 183 186 189 185 160 164 172 174
341 337 340 338 338 338 332 325 320 316 319 326 316 284 287 290 345 31 350 258 53 168 192 245 290 323 284 251 172 261 274 280 289 285 283 239 145 141 193 170 168 162 168 174 177
342 339 340 339 341 342 338 326 328 316 315 323 316 296 273 233 54 290 347 166 123 5 277 309 320 297 282 315 320 292 312 319 284 272 290 156 356 206 156 166 166 170 175 177 180
344 341 340 340 345 346 339 340 342 339 310 312 327 310 257 130 228 257 282 185 98 320 301 314 307 324 327 314 328 354 23 356 283 325 277 102 269 116 161 167 176 181 183 181 180
344 344 341 339 348 348 346 345 347 355 355 315 295 301 265 220 227 228 210 247 297 254 274 301 313 332 328 50 357 3 275 295 309 293 268 134 250 152 173 178 180 186 187 185 183
345 346 344 339 349 359 353 327 325 304 332 313 259 309 267 262 164 191 233 261 293 263 276 260 306 28 11 82 227 244 319 309 280 294 200 241 240 159 174 176 184 186 187 183 193
346 345 344 339 345 23 21 16 358 348 313 264 274 275 296 226 167 192 203 251 252 299 210 298 51 240 231 205 228 254 254 246 247 265 231 303 227 166 178 174 183 184 182 188 198
344 343 344 337 359 52 46 44 22 331 306 297 276 267 258 255 192 190 184 213 261 249 32 3 242 246 231 253 241 255 243 304 291 290 25 333 215 130 176 186 191 185 188 192 190
341 343 341 345 34 33 12 19 358 346 298 292 240 249 250 216 212 234 188 221 252 277 267 181 256 283 201 254 1 309 265 286 299 314 2 41 341 359 299 188 207 194 196 191 193
341 341 341 351 112 20 47 1 331 310 58 278 201 240 172 172 260 221 198 193 234 247 257 238 292 268 172 292 90 309 343 325 323 36 327 54 289 346 348 337 187 192 199 202 206
340 339 330 298 148 51 0 358 338 342 51 215 185 202 182 167 211 191 196 198 229 262 59 273 299 317 247 238 21 245 299 23 9 14 24 355 64 326 22 8 358 212 199 202 204
340 327 322 282 165 10 342 326 313 44 271 216 153 179 132 229 251 176 190 214 236 268 297 248 294 359 221 280 56 282 30 19 47 55 13 294 105 5 25 12 12 22 151 205 213
339 324 314 270 177 348 324 27 46 134 308 186 179 162 191 227 189 189 185 180 169 68 341 342 338 317 32 16 356 48 51 346 359 15 219 103 66 186 278 340 41 33 26 208 193
337 323 307 272 207 332 3 57 81 268 283 270 139 151 186 216 227 192 148 179 141 123 87 54 343 7 341 360 229 104 133 141 355 277 269 353 130 239 229 83 55 74 78 98 142
330 324 313 134 124 91 74 78 211 241 308 350 333 99 321 269 143 84 132 171 150 147 125 92 290 310 323 348 41 313 45 226 127 32 55 13 329 294 273 51 51 50 92 112 144
331 341 144 154 138 140 79 223 250 270 306 29 40 45 25 314 171 144 100 352 72 54 122 213 30 335 315 12 22 65 322 19 16 87 326 1 306 230 296 86 123 104 116 122 136
332 356 125 143 157 150 155 231 286 289 49 47 80 22 29 4 353 63 19 12 37 29 61 48 95 293 11 66 346 351 349 50 118 128 153 231 265 216 229 245 145 177 168 139 113
357 23 161 183 168 147 173 212 320 221 84 47 55 29 41 36 14 52 95 87 31 49 67 335 133 218 247 279 230 262 117 110 111 276 104 134 276 299 222 286 124 172 149 153 140
343 297 205 212 164 284 290 284 276 198 52 33 54 59 312 113 59 72 118 46 57 79 152 180 29 17 343 353 9 27 62 97 94 69 198 147 257 343 283 76 62 140 146 128 123
0 6 331 205 67 335 358 334 341 14 118 113 118 43 35 24 47 336 21 197 126 114 136 111 116 160 205 211 251 320 334 71 134 127 242 212 265 312 313 122 83 131 134 112 78
20 13 11 325 340 340 32 313 358 355 1 75 31 117 317 292 24 41 13 4 40 76 9 97 158 199 254 263 342 312 312 300 230 229 187 272 223 256 310 127 114 130 147 127 87
31 15 355 306 318 358 3 310 306 302 356 290 104 65 83 106 14 154 55 67 165 340 21 349 264 149 267 261 311 305 281 279 274 267 247 247 278 181 115 107 100 100 107 109 81
51 30 337 312 337 17 357 341 318 16 46 75 123 101 72 134 114 268 273 246 211 134 349 39 127 87 246 337 344 313 237 235 246 263 251 297 270 120 102 101 103 99 92 80 55
Wind_Speed_850mb
19 21 23 25 25 26 26 27 29 28 29 29 30 30 28 34 34 41 42 25 9 4 14 14 5 8 13 9 13 8 3 9 7 4 4 0 12 28 32 42 74 29 31 61 65
20 23 25 26 27 27 27 28 29 28 28 29 28 26 28 32 37 33 12 6 7 6 9 8 4 10 8 6 8 9 7 9 17 11 16 7 35 35 21 39 16 38 52 68 71
23 25 26 28 29 28 29 29 29 28 27 27 25 22 25 27 28 11 8 7 5 6 5 9 7 10 7 10 9 4 10 10 32 51 47 28 55 37 52 29 67 73 84 71 74
26 27 28 28 30 30 30 28 27 23 23 22 20 17 22 17 2 11 11 7 8 5 10 11 5 5 5 7 16 2 27 38 45 64 35 17 31 34 54 19 65 70 89 85 84
28 28 30 30 30 31 30 25 22 25 19 16 15 15 15 9 11 8 7 7 6 2 14 7 8 6 8 9 16 10 24 54 64 62 58 25 15 31 42 48 69 79 81 80 70
30 32 31 31 31 31 28 20 23 22 16 14 11 11 9 7 4 4 17 4 8 4 21 14 9 15 20 10 6 17 26 38 35 38 32 6 13 19 17 73 54 71 69 67 66
30 32 32 31 31 30 23 22 24 18 12 11 9 9 13 16 9 2 17 3 8 5 8 19 25 21 29 16 19 19 12 20 15 13 10 4 5 9 57 65 70 72 72 74 68
31 32 31 30 29 25 20 20 21 14 6 7 7 10 12 2 14 17 6 10 1 7 19 20 22 18 7 23 22 14 8 11 17 11 21 12 16 11 74 76 65 52 74 86 77
31 32 31 28 25 20 17 17 15 8 6 5 4 8 10 10 19 14 11 11 14 5 14 20 20 9 14 7 13 13 8 12 20 6 11 10 19 24 72 68 54 72 90 69 62
32 31 30 27 22 15 16 17 13 9 10 9 13 13 4 5 5 20 17 20 10 12 15 14 4 5 9 9 8 13 7 13 15 18 8 17 26 40 63 69 65 65 47 59 63
32 30 27 24 16 10 21 8 13 5 23 22 25 29 31 7 17 14 11 5 14 14 6 6 8 11 21 19 16 7 10 15 11 11 4 12 10 39 48 32 40 49 61 66 64
31 28 24 18 9 9 15 16 16 16 19 30 30 38 35 18 8 7 18 15 8 11 3 11 13 29 13 15 19 19 15 16 13 16 10 18 2 7 49 57 70 69 72 73 68
30 27 20 11 5 9 11 14 15 13 8 24 25 29 28 18 15 13 28 16 11 12 11 10 26 15 13 17 9 7 8 11 11 16 5 8 17 15 7 60 67 65 101 90 98
29 27 20 4 0 12 19 24 19 30 7 12 8 8 18 8 7 30 37 16 4 9 9 13 10 8 7 3 5 10 7 9 10 13 4 9 6 16 31 28 26 64 78 92 99
30 25 19 6 6 10 17 15 20 5 5 8 9 6 16 16 5 18 42 20 13 16 8 19 15 12 8 4 6 16 4 3 7 11 6 18 12 18 36 40 45 24 92 104 116
27 26 16 6 9 10 10 11 13 9 6 5 16 13 11 21 8 36 31 26 10 5 2 14 22 2 5 4 2 7 10 17 10 7 10 9 10 19 16 18 33 45 20 55 64
26 24 16 11 13 9 14 8 9 5 11 8 11 11 14 10 10 13 12 9 7 6 10 11 9 14 7 7 15 17 14 8 10 10 8 3 17 4 10 9 20 25 32 19 58
27 21 16 9 11 6 5 10 3 8 10 12 8 8 12 14 10 17 10 4 5 7 4 9 15 14 15 5 8 4 12 9 2 4 9 13 5 9 6 8 31 48 45 52 42
28 19 6 16 14 7 6 7 11 7 9 13 11 7 7 3 7 8 6 9 5 7 12 6 9 9 5 11 7 12 10 3 7 4 7 0 6 10 3 16 42 34 39 31 35
28 17 9 17 11 7 9 8 8 6 9 8 9 10 11 10 6 10 4 10 6 5 14 8 1 6 14 19 17 13 3 6 8 4 3 3 4 7 11 6 19 10 15 28 16
20 5 15 12 18 6 6 11 10 12 8 9 4 7 6 7 11 4 9 6 10 8 20 6 7 12 11 3 3 11 8 11 6 7 7 2 9 14 16 10 20 24 26 22 15
8 4 18 14 2 1 5 9 8 6 4 6 5 4 5 8 11 8 5 4 7 4 6 5 9 3 15 11 13 1 6 7 9 8 2 6 11 6 19 14 10 26 23 22 17
22 10 8 17 2 5 11 12 23 8 5 6 7 5 4 4 5 7 3 7 11 7 9 3 4 7 19 12 14 8 7 7 7 5 8 10 10 7 9 6 12 37 29 23 18
10 7 7 7 7 2 9 7 12 8 5 10 4 8 10 9 7 4 4 6 7 7 9 9 6 12 13 7 4 10 13 4 5 5 6 11 9 15 9 15 18 37 35 30 26
9 4 11 6 9 11 5 5 7 12 12 5 6 2 1 4 8 8 10 15 18 8 4 8 5 8 8 9 1 8 16 15 10 11 9 15 11 16 8 14 28 33 33 26 18
8 10 14 13 22 11 6 7 6 8 4 6 9 10 11 10 4 4 2 5 4 11 12 12 4 4 6 9 6 8 17 18 18 17 13 15 14 5 37 49 41 34 35 27 24
7 5 4 10 12 5 2 13 17 1 24 15 9 10 13 7 1 5 7 7 6 6 2 5 3 5 8 9 7 3 15 14 8 9 10 8 16 32 19 28 35 36 30 23 16
Wind_Direction_850mb
334 330 328 325 324 320 318 315 309 305 304 296 293 294 301 300 303 302 297 295 231 277 311 290 252 169 181 228 224 223 77 264 257 277 271 22 99 112 169 165 191 226 171 163 166
334 330 330 327 323 321 319 317 311 309 301 292 292 295 301 305 313 315 326 328 226 283 292 270 137 144 176 225 226 137 154 228 215 259 287 242 150 140 152 155 188 148 148 148 169
337 330 333 329 324 325 322 320 314 308 299 293 292 298 299 310 328 17 355 30 3 328 285 207 190 318 251 230 231 190 212 225 276 276 276 277 137 146 149 178 163 152 156 164 175
336 335 334 332 329 329 326 322 318 313 304 300 295 297 295 309 336 353 346 18 9 308 204 195 252 219 228 231 230 242 256 256 267 273 276 264 154 158 154 155 175 160 160 166 173
337 336 335 336 335 334 329 326 318 318 311 310 303 289 289 301 280 353 315 1 3 252 187 223 283 226 211 232 277 193 268 277 277 278 278 268 209 183 186 189 185 160 164 172 174
341 337 340 338 338 338 332 325 320 316 319 326 316 284 287 290 345 31 350 258 53 168 192 245 290 323 284 251 172 261 274 280 289 285 283 239 145 141 193 170 168 162 168 174 177
342 339 340 339 341 342 338 326 328 316 315 323 316 296 273 233 54 290 347 166 123 5 277 309 320 297 282 315 320 292 312 319 284 272 290 156 356 206 156 166 166 170 175 177 180
344 341 340 340 345 346 339 340 342 339 310 312 327 310 257 130 228 257 282 185 98 320 301 314 307 324 327 314 328 354 23 356 283 325 277 102 269 116 161 167 176 181 183 181 180
344 344 341 339 348 348 346 345 347 355 355 315 295 301 265 220 227 228 210 247 297 254 274 301 313 332 328 50 357 3 275 295 309 293 268 134 250 152 173 178 180 186 187 185 183
345 346 344 339 349 359 353 327 325 304 332 313 259 309 267 262 164 191 233 261 293 263 276 260 306 28 11 82 227 244 319 309 280 294 200 241 240 159 174 176 184 186 187 183 193
346 345 344 339 345 23 21 16 358 348 313 264 274 275 296 226 167 192 203 251 252 299 210 298 51 240 231 205 228 254 254 246 247 265 231 303 227 166 178 174 183 184 182 188 198
344 343 344 337 359 52 46 44 22 331 306 297 276 267 258 255 192 190 184 213 261 249 32 3 242 246 231 253 241 255 243 304 291 290 25 333 215 130 176 186 191 185 188 192 190
341 343 341 345 34 33 12 19 358 346 298 292 240 249 250 216 212 234 188 221 252 277 267 181 256 283 201 254 1 309 265 286 299 314 2 41 341 359 299 188 207 194 196 191 193
341 341 341 351 112 20 47 1 331 310 58 278 201 240 172 172 260 221 198 193 234 247 257 238 292 268 172 292 90 309 343 325 323 36 327 54 289 346 348 337 187 192 199 202 206
340 339 330 298 148 51 0 358 338 342 51 215 185 202 182 167 211 191 196 198 229 262 59 273 299 317 247 238 21 245 299 23 9 14 24 355 64 326 22 8 358 212 199 202 204
340 327 322 282 165 10 342 326 313 44 271 216 153 179 132 229 251 176 190 214 236 268 297 248 294 359 221 280 56 282 30 19 47 55 13 294 105 5 25 12 12 22 151 205 213
339 324 314 270 177 348 324 27 46 134 308 186 179 162 191 227 189 189 185 180 169 68 341 342 338 317 32 16 356 48 51 346 359 15 219 103 66 186 278 340 41 33 26 208 193
337 323 307 272 207 332 3 57 81 268 283 270 139 151 186 216 227 192 148 179 141 123 87 54 343 7 341 360 229 104 133 141 355 277 269 353 130 239 229 83 55 74 78 98 142
330 324 313 134 124 91 74 78 211 241 308 350 333 99 321 269 143 84 132 171 150 147 125 92 290 310 323 348 41 313 45 226 127 32 55 13 329 294 273 51 51 50 92 112 144
331 341 144 154 138 140 79 223 250 270 306 29 40 45 25 314 171 144 100 352 72 54 122 213 30 335 315 12 22 65 322 19 16 87 326 1 306 230 296 86 123 104 116 122 136
332 356 125 143 157 150 155 231 286 289 49 47 80 22 29 4 353 63 19 12 37 29 61 48 95 293 11 66 346 351 349 50 118 128 153 231 265 216 229 245 145 177 168 139 113
357 23 161 183 168 147 173 212 320 221 84 47 55 29 41 36 14 52 95 87 31 49 67 335 133 218 247 279 230 262 117 110 111 276 104 134 276 299 222 286 124 172 149 153 140
343 297 205 212 164 284 290 284 276 198 52 33 54 59 312 113 59 72 118 46 57 79 152 180 29 17 343 353 9 27 62 97 94 69 198 147 257 343 283 76 62 140 146 128 123
0 6 331 205 67 335 358 334 341 14 118 113 118 43 35 24 47 336 21 197 126 114 136 111 116 160 205 211 251 320 334 71 134 127 242 212 265 312 313 122 83 131 134 112 78
20 13 11 325 340 340 32 313 358 355 1 75 31 117 317 292 24 41 13 4 40 76 9 97 158 199 254 263 342 312 312 300 230 229 187 272 223 256 310 127 114 130 147 127 87
31 15 355 306 318 358 3 310 306 302 356 290 104 65 83 106 14 154 55 67 165 340 21 349 264 149 267 261 311 305 281 279 274 267 247 247 278 181 115 107 100 100 107 109 81
51 30 337 312 337 17 357 341 318 16 46 75 123 101 72 134 114 268 273 246 211 134 349 39 127 87 246 337 344 313 237 235 246 263 251 297 270 120 102 101 103 99 92 80 55